Location: アルンシュタイン
(50.0000°N, 10.0000°E)
Time: 06:49:23
(UTC+01:00)

Envisat - Pass Details

Date: 30 October 2021
Orbit: 764 x 766 km, 98.2° (Epoch: 04 December)

Event Time Altitude Azimuth Distance (km) Brightness Sun altitude
Rises 18:52:50 0° 212° (SSW) 3,223 6.9 -9.0°
Reaches altitude 10° 18:55:58 10° 233° (SW) 2,303 6.6 -9.5°
Maximum altitude 18:59:10 17° 272° (W) 1,889 6.3 -10.0°
Drops below altitude 10° 19:02:22 10° 312° (NW) 2,314 6.1 -10.5°
Sets 19:05:34 0° 333° (NNW) 3,246 6.5 -11.0°
